#timestamp,LO_Frequency,Hit,StdDev 
1578312015.1,286046996.6,P
1578312035.9,286046997.2,N
1578312055.7,286046996.5,P
1578312075.5,286047001.1,N
1578312095.4,286046996.5,N
1578312115.2,286046996.9,N
1578312135.1,286046999.1,N
1578312136.0,286046999.1,N
1578312155.8,286046998.8,N
1578312175.6,286046998.1,N
1578312195.5,286046998.9,N
1578312215.3,286046997.7,N
1578312235.1,286047000.8,N
1578312255.9,286046997.2,N
1578312275.7,286046997.9,N
1578312295.6,286046996.6,N
1578312315.4,286046997.9,N
1578312335.2,286046996.3,N
1578312355.1,286046996.1,N
1578312356.0,286046996.1,N
1578312375.8,286046995.2,Y
1578312395.7,286046998.8,P
1578312415.5,286046998.3,P
1578312435.3,286046998.5,P
1578312455.2,286046998.5,Y
1578312475.0,286047001.2,P
1578312475.9,286047001.2,N
1578312495.7,286046998.6,N
1578312515.6,286046999.0,N
1578312535.4,286047000.0,N
1578312555.3,286047002.8,N
1578312575.1,286047001.0,N
1578312576.0,286047001.0,N
1578312595.8,286046998.2,N
1578312615.7,286047000.4,N
1578312635.5,286047000.8,N
1578312655.3,286046998.1,N
1578312675.2,286047000.0,N
1578312695.0,286047000.0,N
1578312695.9,286047000.0,N
1578312715.8,286047002.6,N
1578312735.6,286047002.4,N
1578312755.4,286047002.5,N
1578312775.3,286047000.3,N
1578312795.1,286046999.1,N
1578312815.8,286046999.9,N
1578312835.7,286047001.9,N
1578312855.5,286047004.3,Y
1578312875.4,286047002.6,P
1578312895.2,286047002.5,N
1578312915.0,286047000.9,N
1578312915.9,286047000.9,N
1578312935.8,286047001.8,N
1578312955.6,286047002.7,Y
1578312975.5,286046999.3,P
1578312995.3,286047002.4,N
1578313015.1,286047001.6,N
1578313035.9,286047004.3,Y
1578313055.7,286047000.9,P
1578313075.5,286046999.4,P
1578313095.4,286046999.3,N
1578313115.2,286046995.0,Y
1578313135.1,286046997.5,P
1578313136.0,286046997.5,N
1578313155.8,286046997.5,N
1578313175.6,286046996.7,N
1578313195.5,286046997.0,N
1578313215.3,286046999.6,N
1578313235.1,286046996.5,N
1578313255.9,286046999.3,N
1578313275.7,286046997.3,N
1578313295.6,286046996.1,Y
1578313315.4,286046997.0,P
1578313335.2,286046999.2,N
1578313355.1,286046998.1,N
1578313356.0,286046998.1,N
1578313375.8,286046997.0,Y
1578313395.7,286046998.2,P
1578313415.5,286046999.2,P
1578313435.3,286046996.9,P
1578313455.2,286046998.0,N
1578313475.0,286046999.0,N
1578313475.9,286046999.0,N
1578313495.7,286046998.6,N
1578313515.6,286046999.4,N
1578313535.4,286046997.0,Y
1578313555.3,286047000.9,P
1578313575.1,286047000.3,N
1578313595.8,286047000.5,N
1578313615.7,286047001.1,N
1578313635.5,286047001.0,N
1578313655.3,286046998.2,N
1578313675.2,286047000.3,N
1578313695.0,286047002.1,N
1578313695.9,286047002.1,N
1578313715.8,286047000.4,N
1578313735.6,286046998.2,N
1578313755.4,286046998.5,N
1578313775.3,286047000.2,N
1578313795.1,286047002.4,N
1578313815.8,286047002.4,N
1578313835.7,286047002.2,N
1578313855.5,286047002.0,N
1578313875.4,286046999.7,N
1578313895.2,286047002.2,N
1578313915.0,286047002.5,N
1578313915.9,286047002.5,N
1578313935.8,286047002.4,N
1578313955.6,286047002.1,N
1578313975.4,286047002.7,N
1578313995.3,286047004.1,N
1578314015.1,286047001.8,N
1578314035.9,286047001.9,N
1578314055.7,286047000.4,N
1578314075.5,286047000.7,N
1578314095.4,286047000.5,N
1578314115.2,286046998.4,N
1578314135.0,286046999.0,N
1578314136.0,286046999.0,N
1578314155.8,286046998.2,N
1578314175.6,286046999.1,N
1578314195.5,286047000.8,N
1578314215.3,286046999.3,N
1578314235.1,286047001.2,N
1578314255.9,286046998.3,N
1578314275.7,286046996.9,N
1578314295.6,286046996.2,N
1578314315.4,286046998.0,N
1578314335.2,286046995.1,N
1578314355.1,286046994.9,N
1578314356.0,286046994.9,N
1578314375.8,286046996.7,N
1578314395.6,286046996.9,N
1578314415.5,286046998.4,N
1578314435.3,286046998.2,N
1578314455.2,286047000.5,N
1578314475.9,286047000.7,N
1578314495.7,286047000.8,N
1578314515.6,286046997.0,N
1578314535.4,286046998.4,N
1578314555.2,286046998.3,N
1578314575.1,286046997.4,N
1578314576.0,286046997.4,N
1578314595.8,286046999.3,N
1578314615.7,286046996.6,N
1578314635.5,286046999.1,N
1578314655.3,286046998.6,N
1578314675.2,286046995.1,N
1578314695.0,286046996.7,N
1578314695.9,286046996.7,N
1578314715.7,286046997.0,N
1578314735.6,286046995.0,N
1578314755.4,286046993.4,Y
1578314775.3,286046998.9,P
1578314795.1,286046998.1,P
1578314796.0,286046998.1,P
1578314815.8,286046999.0,N
1578314835.7,286046999.6,N
1578314855.5,286046996.6,Y
1578314875.4,286047000.6,P
1578314895.2,286046999.3,N
1578314915.0,286046999.2,N
1578314915.9,286046999.2,N
1578314935.8,286046997.2,Y
1578314955.6,286046999.5,P
1578314975.4,286046998.1,P
1578314995.3,286047000.8,N
1578315015.1,286046998.3,N
1578315035.9,286046998.6,N
1578315055.7,286046998.4,N
1578315075.5,286046998.1,N
1578315095.4,286047002.0,N
1578315115.2,286047002.6,N
1578315135.0,286047002.6,N
1578315135.9,286047002.6,N
1578315155.8,286047000.9,N
1578315175.6,286047000.6,N
1578315195.5,286047001.0,N
1578315215.3,286046998.6,N
1578315235.1,286046998.9,N
1578315255.9,286046999.3,N
1578315275.7,286047002.8,N
1578315295.5,286047000.5,N
1578315315.4,286046998.5,N
1578315335.2,286046998.5,N
1578315355.1,286047000.4,N
1578315356.0,286047000.4,N
1578315375.8,286047002.6,N
1578315395.6,286047000.6,N
1578315415.5,286047000.9,N
1578315435.3,286046999.2,N
1578315455.1,286046998.5,N
1578315475.9,286046997.8,N
1578315495.7,286046996.6,N
1578315515.6,286046996.5,N
1578315535.4,286046997.9,N
1578315555.2,286046998.6,N
1578315575.1,286046998.9,N
1578315576.0,286046998.9,N
1578315595.8,286046998.6,N
